Location: Arboyeti
(42.1122°N, 44.6017°E)
Time: 19:26:12
(UTC+00:00)

Cosmos 1689 Rocket - Pass Details

Date: 19 April 2021
Orbit: 345 x 359 km, 97.5° (Epoch: 17 May)

Event Time Altitude Azimuth Distance (km) Brightness Sun altitude
Rises 16:22:24 0° 6° (N) 2,187 6.1 -7.0°
Reaches altitude 10° 16:24:23 10° 360° (N) 1,334 5.1 -7.3°
Maximum altitude 16:27:06 45° 286° (WNW) 492 3.2 -7.8°
Drops below altitude 10° 16:29:47 10° 211° (SSW) 1,312 4.9 -8.2°
Sets 16:31:43 0° 205° (SSW) 2,146 5.9 -8.5°
